User: anonymous
Location: Unspecified
(0.0000°N, 0.0000°E)
Time: 10:35:56
(UTC+02:00)
Language:

Delta 2 Rocket - Orbit

View from above orbital plane
View from above orbital plane
View from above satellite
View from above satellite

Ground track
Ground track

The orbit data is extracted from the following two-line orbital elements,

1 20453U 90008B   14212.59525021  .00002683  00000-0  17607-3 0   354
2 20453 035.6250 257.9889 0323469 105.5037 258.1629 14.73620786292339
Epoch (UTC): 31 July 2014 14:17:09
Eccentricity: 0.0323469
inclination: 35.6250°
perigee height: 422 km
apogee height: 877 km
right ascension of ascending node: 257.9889°
argument of perigee: 105.5037°
revolutions per day: 14.73620786
mean anomaly at epoch: 258.1629°
orbit number at epoch: 29233

The dashed part of the orbit path shows where the satellite is in the earth's shadow,  

DLR